User: anonymous   Login
Location: Gombori
(14.9797°N, 2.9419°W)
Time: 01:43:38
(UTC+00:00)
Language:

Cosmos 1812 Rocket - Orbit

View from above orbital plane
View from above orbital plane
View from above satellite
View from above satellite

Ground track
Ground track

The orbit data is extracted from the following two-line orbital elements,

1 17296U 87003B   21293.62443670  .00000134  00000-0  13371-4 0  9999
2 17296  82.5305 341.0632 0019853  34.5870 325.6632 14.83356060878288
Epoch (UTC): 20 October 2021 14:59:11
Eccentricity: 0.0019853
inclination: 82.5305°
perigee height: 605 km
apogee height: 632 km
right ascension of ascending node: 341.0632°
argument of perigee: 34.5870°
revolutions per day: 14.83356060
mean anomaly at epoch: 325.6632°
orbit number at epoch: 87828

The dashed part of the orbit path shows where the satellite is in the earth's shadow,  

DLR